sat.trackr.live / text

‹ back to catalog

STARLINK-36367

NORAD 67629 · 2026-020N

PAYLOAD ACTIVE UNKNOWN

§ Identity

Operator
Country
US
Launch date
2026-01-30
Launch site
AFETR
Launch vehicle
Mass (kg)
RCS (m²)

Purposes: comms

External: N2YO · Heavens-Above · Gunter

§ Orbital elements

Epoch: 2026-09-19T00:25:57.722880Z

Period
94.27 min
Inclination
43.0050°
Eccentricity
0.0001552
Mean motion
15.27590226 rev/d
Perigee alt
482.0 km
Apogee alt
484.1 km
Semi-major
6,861.2 km
B*
4.1762e-4
RAAN
127.7041°
Arg perigee
264.6427°
Mean anomaly
95.4248°
Rev number
3,568

§ Raw data

STARLINK-363671 67629U 26020N   26262.01802920  .00011251  00000+0  41762-3 0  99922 67629  43.0050 127.7041 0001552 264.6427  95.4248 15.27590226 35683

JSON: /api/v1/satellites/67629 · /tle

For live sub-satellite position, see the globe view (requires WebGL).

§ Visibility from observer

Set your observer location to see the next 7 days of passes ≥ 10°. The values pass through the URL so the page stays shareable.

No JS? Fill the form by hand. The geolocation button needs JavaScript.